CCA6208 KHBZ-KCHN

Flight info

Callsign CCA6208
Flight time 1h 40m
Altitude 31000
Route LIT J66 MEM J41 LOBBS Q116 SMELZ SHEEK
Aircraft B737/M-V/N

Departure

Time 2026-05-01 11:33
Airport Heber Springs Municipal Airport (KHBZ)

Arrival

Time 2026-05-01 13:14
Airport Wauchula Municipal Airport (KCHN)
Time Latitude Longitude Altitude Speed Heading
2026-05-01 11:30 35.51438 -92.00742 640 ft 0 kts 239°
2026-05-01 11:32 35.51437 -92.00744 640 ft 3 kts 239°
2026-05-01 11:32 35.51376 -92.00872 640 ft 44 kts 239°
2026-05-01 11:32 35.51111 -92.01422 640 ft 106 kts 239°
2026-05-01 11:32 35.50638 -92.02404 636 ft 158 kts 239°
2026-05-01 11:33 35.50021 -92.03630 983 ft 176 kts 237°
2026-05-01 11:33 35.49184 -92.04835 1365 ft 195 kts 214°
2026-05-01 11:33 35.47930 -92.05413 2052 ft 189 kts 188°
2026-05-01 11:33 35.46663 -92.05552 2923 ft 182 kts 190°
2026-05-01 11:34 35.45332 -92.05755 3336 ft 204 kts 189°
2026-05-01 11:34 35.43826 -92.05983 3654 ft 231 kts 188°
2026-05-01 11:34 35.42161 -92.06234 3984 ft 255 kts 188°
2026-05-01 11:34 35.40420 -92.06497 4968 ft 244 kts 183°
2026-05-01 11:35 35.38732 -92.06749 5841 ft 247 kts 191°
2026-05-01 11:35 35.36982 -92.07009 6421 ft 256 kts 191°
2026-05-01 11:35 35.35196 -92.07274 7111 ft 261 kts 191°
2026-05-01 11:35 35.33372 -92.07545 7788 ft 266 kts 192°
2026-05-01 11:36 35.31500 -92.07821 8356 ft 274 kts 191°
2026-05-01 11:36 35.29600 -92.08102 8898 ft 288 kts 191°
2026-05-01 11:36 35.27521 -92.08408 9439 ft 303 kts 191°
2026-05-01 11:36 35.25438 -92.08715 10178 ft 309 kts 191°
2026-05-01 11:37 35.23251 -92.09036 10930 ft 317 kts 191°
2026-05-01 11:37 35.21163 -92.09343 11484 ft 329 kts 191°
2026-05-01 11:37 35.18841 -92.09683 11880 ft 349 kts 191°
2026-05-01 11:37 35.16362 -92.10046 12234 ft 369 kts 191°
2026-05-01 11:38 35.13739 -92.10431 12603 ft 387 kts 191°
2026-05-01 11:38 35.10995 -92.10837 12868 ft 407 kts 191°
2026-05-01 11:38 35.08120 -92.11259 13238 ft 421 kts 191°
2026-05-01 11:38 35.05186 -92.11689 13919 ft 426 kts 192°
2026-05-01 11:39 35.02265 -92.12116 14912 ft 419 kts 194°
2026-05-01 11:39 34.99345 -92.12543 15573 ft 425 kts 194°
2026-05-01 11:39 34.96427 -92.12968 16114 ft 430 kts 195°
2026-05-01 11:39 34.93431 -92.13404 16675 ft 435 kts 196°
2026-05-01 11:40 34.90396 -92.13783 17206 ft 447 kts 191°
2026-05-01 11:40 34.87223 -92.13408 17674 ft 472 kts 176°
2026-05-01 11:40 34.84054 -92.12029 18110 ft 496 kts 161°
2026-05-01 11:40 34.81112 -92.09694 18470 ft 517 kts 146°
2026-05-01 11:41 34.78605 -92.06458 19073 ft 526 kts 131°
2026-05-01 11:41 34.76785 -92.02591 19884 ft 532 kts 118°
2026-05-01 11:41 34.75632 -91.98249 20172 ft 545 kts 103°
2026-05-01 11:41 34.75289 -91.93649 20534 ft 550 kts 88°
2026-05-01 11:42 34.75773 -91.89046 20899 ft 549 kts 73°
2026-05-01 11:42 34.76959 -91.84658 21315 ft 545 kts 64°
2026-05-01 11:42 34.78346 -91.80352 21689 ft 549 kts 65°
2026-05-01 11:42 34.79608 -91.75956 22041 ft 553 kts 67°
2026-05-01 11:43 34.80757 -91.71474 22440 ft 555 kts 68°
2026-05-01 11:43 34.81842 -91.66941 22768 ft 559 kts 69°
2026-05-01 11:43 34.82825 -91.62365 23199 ft 558 kts 69°
2026-05-01 11:44 34.84531 -91.53209 24105 ft 560 kts 77°
2026-05-01 11:44 34.85307 -91.48507 24194 ft 570 kts 77°
2026-05-01 11:44 34.86051 -91.43739 24283 ft 578 kts 78°
2026-05-01 11:44 34.86770 -91.38888 24367 ft 584 kts 79°
2026-05-01 11:45 34.87466 -91.33981 24538 ft 588 kts 79°
2026-05-01 11:45 34.88138 -91.29049 24754 ft 591 kts 79°
2026-05-01 11:45 34.88986 -91.24132 24955 ft 592 kts 73°
2026-05-01 11:45 34.90064 -91.19279 25146 ft 595 kts 73°
2026-05-01 11:46 34.90950 -91.14329 25311 ft 600 kts 78°
2026-05-01 11:46 34.91594 -91.09359 25510 ft 603 kts 82°
2026-05-01 11:46 34.92102 -91.04271 25722 ft 604 kts 83°
2026-05-01 11:46 34.92543 -90.99159 25898 ft 607 kts 84°
2026-05-01 11:47 34.92992 -90.94066 26063 ft 608 kts 83°
2026-05-01 11:47 34.93456 -90.88892 26187 ft 611 kts 83°
2026-05-01 11:47 34.93922 -90.83743 26381 ft 611 kts 83°
2026-05-01 11:47 34.94390 -90.78597 26602 ft 611 kts 83°
2026-05-01 11:48 34.94859 -90.73446 26817 ft 611 kts 83°
2026-05-01 11:48 34.95327 -90.68301 27034 ft 611 kts 83°
2026-05-01 11:48 34.95795 -90.63149 27254 ft 611 kts 83°
2026-05-01 11:48 34.96262 -90.57990 27479 ft 611 kts 83°
2026-05-01 11:49 34.96726 -90.52837 27703 ft 611 kts 83°
2026-05-01 11:49 34.97187 -90.47694 27928 ft 611 kts 83°
2026-05-01 11:49 34.97649 -90.42525 28147 ft 611 kts 83°
2026-05-01 11:49 34.98108 -90.37371 28371 ft 611 kts 83°
2026-05-01 11:50 34.98584 -90.32212 28597 ft 611 kts 82°
2026-05-01 11:50 34.99042 -90.27062 28821 ft 611 kts 82°
2026-05-01 11:50 34.99492 -90.21904 29047 ft 611 kts 83°
2026-05-01 11:50 34.99938 -90.16750 29272 ft 611 kts 83°
2026-05-01 11:51 35.00379 -90.11594 29505 ft 611 kts 83°
2026-05-01 11:51 35.00807 -90.06435 29737 ft 612 kts 84°
2026-05-01 11:51 35.00850 -90.01231 29962 ft 612 kts 94°
2026-05-01 11:51 35.00302 -89.96096 30175 ft 609 kts 105°
2026-05-01 11:52 34.99018 -89.91209 30391 ft 600 kts 118°
2026-05-01 11:52 34.97174 -89.86678 30617 ft 593 kts 126°
2026-05-01 11:52 34.95174 -89.82299 30942 ft 590 kts 127°
2026-05-01 11:52 34.93201 -89.77904 31034 ft 589 kts 126°
2026-05-01 11:53 34.89348 -89.69108 31055 ft 587 kts 125°
2026-05-01 11:53 34.85558 -89.60297 31065 ft 587 kts 124°
2026-05-01 11:54 34.81821 -89.51448 31069 ft 588 kts 124°
2026-05-01 11:54 34.78089 -89.42628 31084 ft 589 kts 124°
2026-05-01 11:55 34.74334 -89.33776 31090 ft 589 kts 124°
2026-05-01 11:55 34.70572 -89.24932 31093 ft 590 kts 125°
2026-05-01 11:56 34.66827 -89.16150 31094 ft 590 kts 125°
2026-05-01 11:56 34.63200 -89.07667 31093 ft 586 kts 125°
2026-05-01 11:57 34.60058 -89.00335 31080 ft 590 kts 126°
2026-05-01 11:57 34.55646 -88.90065 31073 ft 590 kts 126°
2026-05-01 11:58 34.51837 -88.81224 31073 ft 590 kts 126°
2026-05-01 11:59 34.46117 -88.67991 31066 ft 590 kts 126°
2026-05-01 11:59 34.42941 -88.60666 31063 ft 590 kts 126°
2026-05-01 12:00 34.37208 -88.47482 31072 ft 589 kts 126°
2026-05-01 12:01 34.31457 -88.34305 31071 ft 589 kts 126°
2026-05-01 12:01 34.27626 -88.25556 31084 ft 588 kts 126°
2026-05-01 12:02 34.23795 -88.16827 31096 ft 587 kts 126°
2026-05-01 12:02 34.19965 -88.08123 31105 ft 586 kts 126°
2026-05-01 12:03 34.16135 -87.99401 31108 ft 586 kts 126°
2026-05-01 12:03 34.12302 -87.90721 31107 ft 586 kts 126°
2026-05-01 12:04 34.08469 -87.82094 31098 ft 586 kts 126°
2026-05-01 12:04 34.04588 -87.73382 31092 ft 586 kts 126°
2026-05-01 12:05 34.00738 -87.64720 31089 ft 586 kts 126°
2026-05-01 12:05 33.94939 -87.51748 31072 ft 586 kts 126°
2026-05-01 12:06 33.91066 -87.43116 31068 ft 586 kts 126°
2026-05-01 12:06 33.87209 -87.34559 31057 ft 585 kts 126°
2026-05-01 12:07 33.83312 -87.25941 31054 ft 585 kts 126°
2026-05-01 12:07 33.79444 -87.17325 31054 ft 585 kts 126°
2026-05-01 12:08 33.75555 -87.08727 31052 ft 585 kts 126°
2026-05-01 12:08 33.71653 -87.00155 31050 ft 584 kts 126°
2026-05-01 12:09 33.67488 -86.91848 31049 ft 573 kts 134°
2026-05-01 12:09 33.62221 -86.84892 31048 ft 552 kts 149°
2026-05-01 12:10 33.53119 -86.76774 31047 ft 545 kts 154°
2026-05-01 12:11 33.43995 -86.68604 31042 ft 546 kts 153°
2026-05-01 12:11 33.37941 -86.63094 31035 ft 546 kts 153°
2026-05-01 12:12 33.31943 -86.57588 31031 ft 546 kts 153°
2026-05-01 12:12 33.25907 -86.52052 31028 ft 546 kts 153°
2026-05-01 12:13 33.19870 -86.46522 31035 ft 547 kts 153°
2026-05-01 12:13 33.13815 -86.40984 31050 ft 547 kts 153°
2026-05-01 12:14 33.07808 -86.35499 31049 ft 547 kts 153°
2026-05-01 12:14 33.01763 -86.29989 31055 ft 546 kts 153°
2026-05-01 12:15 32.95737 -86.24505 31068 ft 545 kts 154°
2026-05-01 12:15 32.89721 -86.19041 31082 ft 543 kts 154°
2026-05-01 12:16 32.83709 -86.13589 31095 ft 541 kts 155°
2026-05-01 12:16 32.77785 -86.08228 31097 ft 543 kts 153°
2026-05-01 12:17 32.72089 -86.03080 31056 ft 547 kts 153°
2026-05-01 12:17 32.66031 -85.97614 31032 ft 547 kts 153°
2026-05-01 12:18 32.59965 -85.92152 31022 ft 547 kts 153°
2026-05-01 12:18 32.53904 -85.86703 31019 ft 547 kts 153°
2026-05-01 12:19 32.47830 -85.81251 31014 ft 547 kts 153°
2026-05-01 12:19 32.41796 -85.75846 31015 ft 547 kts 153°
2026-05-01 12:20 32.35725 -85.70416 31017 ft 546 kts 153°
2026-05-01 12:20 32.29655 -85.64996 31016 ft 546 kts 153°
2026-05-01 12:21 32.23588 -85.59588 31014 ft 546 kts 153°
2026-05-01 12:21 32.17510 -85.54180 31013 ft 546 kts 153°
2026-05-01 12:22 32.11421 -85.48772 31010 ft 549 kts 152°
2026-05-01 12:22 32.05328 -85.43369 31010 ft 548 kts 152°
2026-05-01 12:23 31.99226 -85.37966 31009 ft 548 kts 152°
2026-05-01 12:23 31.93117 -85.32568 31013 ft 549 kts 152°
2026-05-01 12:24 31.87002 -85.27172 31016 ft 549 kts 152°
2026-05-01 12:24 31.80885 -85.21773 31015 ft 549 kts 152°
2026-05-01 12:25 31.71760 -85.13745 31012 ft 548 kts 152°
2026-05-01 12:26 31.65600 -85.08348 31011 ft 548 kts 152°
2026-05-01 12:26 31.56420 -85.00320 31000 ft 547 kts 152°
2026-05-01 12:27 31.47257 -84.92382 31002 ft 547 kts 153°
2026-05-01 12:28 31.38056 -84.84432 30993 ft 548 kts 152°
2026-05-01 12:29 31.28866 -84.76507 30991 ft 549 kts 151°
2026-05-01 12:29 31.19649 -84.68537 30991 ft 549 kts 151°
2026-05-01 12:30 31.10434 -84.60605 30991 ft 548 kts 151°
2026-05-01 12:31 31.04324 -84.55360 30994 ft 549 kts 151°
2026-05-01 12:31 30.98169 -84.50086 30993 ft 549 kts 151°
2026-05-01 12:32 30.92009 -84.44817 30993 ft 548 kts 151°
2026-05-01 12:32 30.82790 -84.36947 30992 ft 548 kts 151°
2026-05-01 12:33 30.76643 -84.31710 30989 ft 546 kts 151°
2026-05-01 12:33 30.70526 -84.26508 30980 ft 543 kts 152°
2026-05-01 12:34 30.64412 -84.21315 30981 ft 544 kts 152°
2026-05-01 12:34 30.59325 -84.17001 30981 ft 544 kts 152°
2026-05-01 12:35 30.52199 -84.10968 30982 ft 543 kts 152°
2026-05-01 12:35 30.47074 -84.06635 30980 ft 542 kts 152°
2026-05-01 12:36 30.40972 -84.01472 30980 ft 543 kts 152°
2026-05-01 12:36 30.34863 -83.96318 30987 ft 543 kts 152°
2026-05-01 12:37 30.28750 -83.91179 30984 ft 542 kts 152°
2026-05-01 12:37 30.22631 -83.86044 30995 ft 544 kts 154°
2026-05-01 12:38 30.16482 -83.80890 31011 ft 544 kts 154°
2026-05-01 12:38 30.10407 -83.75807 31011 ft 544 kts 154°
2026-05-01 12:39 30.04688 -83.71022 31009 ft 544 kts 151°
2026-05-01 12:39 29.98545 -83.65900 30996 ft 543 kts 150°
2026-05-01 12:40 29.92452 -83.60832 30993 ft 543 kts 151°
2026-05-01 12:40 29.86280 -83.55703 30993 ft 542 kts 150°
2026-05-01 12:41 29.80156 -83.50625 30993 ft 542 kts 150°
2026-05-01 12:41 29.74028 -83.45553 30992 ft 543 kts 150°
2026-05-01 12:42 29.67898 -83.40485 30993 ft 541 kts 150°
2026-05-01 12:42 29.61791 -83.35443 30993 ft 540 kts 150°
2026-05-01 12:43 29.55676 -83.30388 30994 ft 541 kts 150°
2026-05-01 12:43 29.49578 -83.25339 30993 ft 540 kts 150°
2026-05-01 12:44 29.43475 -83.20305 30992 ft 540 kts 150°
2026-05-01 12:45 29.31244 -83.10268 30985 ft 539 kts 150°
2026-05-01 12:45 29.25139 -83.05266 30987 ft 540 kts 150°
2026-05-01 12:46 29.19030 -83.00262 30988 ft 540 kts 150°
2026-05-01 12:46 29.12928 -82.95278 30980 ft 539 kts 150°
2026-05-01 12:47 29.06819 -82.90295 30974 ft 539 kts 150°
2026-05-01 12:47 29.00712 -82.85329 30973 ft 538 kts 150°
2026-05-01 12:48 28.94599 -82.80368 30970 ft 538 kts 151°
2026-05-01 12:48 28.88492 -82.75418 30971 ft 538 kts 150°
2026-05-01 12:49 28.82379 -82.70471 30968 ft 538 kts 151°
2026-05-01 12:49 28.76229 -82.65489 30968 ft 538 kts 150°
2026-05-01 12:50 28.70130 -82.60546 30967 ft 538 kts 151°
2026-05-01 12:50 28.64027 -82.55612 30968 ft 538 kts 150°
2026-05-01 12:51 28.57919 -82.50686 30977 ft 537 kts 150°
2026-05-01 12:52 28.48780 -82.43330 30988 ft 534 kts 149°
2026-05-01 12:52 28.39714 -82.36048 30891 ft 533 kts 148°
2026-05-01 12:53 28.33653 -82.31185 30387 ft 527 kts 149°
2026-05-01 12:53 28.30655 -82.28775 30137 ft 527 kts 149°
2026-05-01 12:53 28.27665 -82.26380 29887 ft 528 kts 148°
2026-05-01 12:54 28.24662 -82.23978 29637 ft 526 kts 148°
2026-05-01 12:54 28.18666 -82.19193 29136 ft 526 kts 148°
2026-05-01 12:54 28.15672 -82.16806 28885 ft 526 kts 148°
2026-05-01 12:55 28.09654 -82.12013 28382 ft 524 kts 148°
2026-05-01 12:55 28.06649 -82.09683 28132 ft 523 kts 150°
2026-05-01 12:55 28.03563 -82.07528 27724 ft 518 kts 153°
2026-05-01 12:56 28.00468 -82.05483 26853 ft 513 kts 153°
2026-05-01 12:56 27.97393 -82.03453 25888 ft 510 kts 153°
2026-05-01 12:56 27.94342 -82.01422 24973 ft 506 kts 152°
2026-05-01 12:56 27.91279 -81.99372 23955 ft 503 kts 151°
2026-05-01 12:57 27.88270 -81.97349 22903 ft 503 kts 151°
2026-05-01 12:57 27.82318 -81.93320 21197 ft 492 kts 151°
2026-05-01 12:57 27.79402 -81.91347 20364 ft 486 kts 152°
2026-05-01 12:58 27.77482 -81.90050 19815 ft 482 kts 152°
2026-05-01 12:58 27.73656 -81.87469 18718 ft 475 kts 152°
2026-05-01 12:58 27.70833 -81.85566 17902 ft 470 kts 153°
2026-05-01 12:59 27.65267 -81.81819 16286 ft 460 kts 153°
2026-05-01 12:59 27.63455 -81.80600 15757 ft 457 kts 153°
2026-05-01 12:59 27.58011 -81.77048 14199 ft 444 kts 159°
2026-05-01 13:00 27.52429 -81.74257 12760 ft 427 kts 164°
2026-05-01 13:00 27.49725 -81.73028 12038 ft 422 kts 163°
2026-05-01 13:01 27.44387 -81.70541 11245 ft 396 kts 163°
2026-05-01 13:01 27.41928 -81.69384 11113 ft 378 kts 163°
2026-05-01 13:01 27.37297 -81.67196 10877 ft 340 kts 164°
2026-05-01 13:02 27.35179 -81.66193 10713 ft 320 kts 164°
2026-05-01 13:07 27.27817 -81.77540 3003 ft 188 kts 292°
2026-05-01 13:07 27.28353 -81.78869 2629 ft 185 kts 292°
2026-05-01 13:07 27.28882 -81.80186 2251 ft 187 kts 292°
2026-05-01 13:08 27.29413 -81.81515 2029 ft 189 kts 293°
2026-05-01 13:08 27.29953 -81.82866 2004 ft 189 kts 294°
2026-05-01 13:08 27.30493 -81.84223 2007 ft 191 kts 294°
2026-05-01 13:08 27.31033 -81.85580 2008 ft 191 kts 294°
2026-05-01 13:09 27.31585 -81.86950 2004 ft 191 kts 297°
2026-05-01 13:09 27.32545 -81.87934 1951 ft 190 kts 339°
2026-05-01 13:09 27.33796 -81.88092 1998 ft 179 kts
2026-05-01 13:09 27.35014 -81.88052 1992 ft 171 kts
2026-05-01 13:10 27.36177 -81.88036 1978 ft 164 kts 359°
2026-05-01 13:10 27.37320 -81.88032 1976 ft 162 kts 358°
2026-05-01 13:10 27.38434 -81.88032 2002 ft 159 kts
2026-05-01 13:10 27.39541 -81.88033 2001 ft 160 kts
2026-05-01 13:11 27.40649 -81.88035 2001 ft 159 kts
2026-05-01 13:11 27.41763 -81.88037 1973 ft 161 kts 359°
2026-05-01 13:11 27.42887 -81.88038 1796 ft 160 kts 358°
2026-05-01 13:11 27.43978 -81.88040 1568 ft 152 kts
2026-05-01 13:12 27.45004 -81.88042 1340 ft 144 kts 359°
2026-05-01 13:12 27.45983 -81.88043 1148 ft 140 kts 358°
2026-05-01 13:12 27.46960 -81.88045 969 ft 144 kts 360°
2026-05-01 13:12 27.47986 -81.88047 791 ft 146 kts
2026-05-01 13:13 27.48986 -81.88048 580 ft 141 kts
2026-05-01 13:13 27.49952 -81.88029 368 ft 138 kts
2026-05-01 13:13 27.50903 -81.88036 162 ft 135 kts 359°
2026-05-01 13:13 27.51723 -81.88050 116 ft 80 kts
2026-05-01 13:14 27.51967 -81.88047 116 ft 20 kts
2026-05-01 13:14 27.52021 -81.88070 116 ft 4 kts 290°
2026-05-01 13:14 27.52012 -81.88103 116 ft 6 kts 213°
2026-05-01 13:14 27.51949 -81.88107 116 ft 12 kts 180°
2026-05-01 13:15 27.51846 -81.88108 116 ft 17 kts 180°
2026-05-01 13:15 27.51720 -81.88110 116 ft 17 kts 180°
2026-05-01 13:15 27.51619 -81.88111 116 ft 12 kts 180°
2026-05-01 13:15 27.51556 -81.88112 116 ft 6 kts 180°
2026-05-01 13:16 27.51528 -81.88113 116 ft 4 kts 180°
2026-05-01 13:16 27.51472 -81.88110 116 ft 12 kts 179°
2026-05-01 13:16 27.51361 -81.88112 116 ft 20 kts 182°
2026-05-01 13:17 27.51269 -81.88219 116 ft 5 kts 272°
2026-05-01 13:17 27.51269 -81.88228 116 ft 0 kts 272°